Change the Weather History Date:

Wednesday, October 17, 2012

  Actual Average Record
Temperature  
Mean Temperature 53 °F 47 °F  
Max Temperature 61 °F 59 °F 82 °F (1956)
Min Temperature 45 °F 36 °F 16 °F (1976)
Degree Days  
Heating Degree Days 12 18  
Month to date heating degree days 295 247  
Since 1 July heating degree days 492 455  
Cooling Degree Days 0 0  
Month to date cooling degree days 0 4  
Year to date cooling degree days 886 591  
Growing Degree Days 2 (Base 50)    
Moisture  
Dew Point 41 °F    
Average Humidity 60    
Maximum Humidity 72    
Minimum Humidity 47    
Precipitation  
Precipitation 0.01 in 0.06 in 1.95 in (1968)
Month to date precipitation 0.08 1.48  
Sea Level Pressure  
Sea Level Pressure 29.34 in    
Wind  
Wind Speed 22 mph (West)    
Max Wind Speed 41 mph    
Max Gust Speed 54 mph    
Visibility 10 miles    
Events Rain    
T = Trace of Precipitation, MM = Missing Value Source: NWS Daily Summary

Daily Weather History Graph

Daily Weather History Graph

Search for Another Location

Airport or City:

Trip Planner

Search our weather history database for the weather conditions in past years. The results will help you decide how hot, cold, wet, or windy it might be!

Date:

Astronomy

Oct. 17, 2012 Rise Set
Actual Time 7:35 AM CDT 6:31 PM CDT
Civil Twilight 7:07 AM CDT 7:00 PM CDT
Nautical Twilight 6:33 AM CDT 7:33 PM CDT
Astronomical Twilight 6:00 AM CDT 8:06 PM CDT
Moon 10:16 AM CDT (10/17) 8:02 PM CDT (10/17)
Length of Visible Light 11h 53m
Length of Day
10h 55m
Waxing Crescent, 7% of the Moon is Illuminated
Oct 17
Waxing Crescent
Oct 21
First Quarter
Oct 29
Full
Nov 6
Last Quarter
Nov 13
New

Hourly Weather History & Observations

Time (CDT) Temp. Windchill Dew Point Humidity Pressure Visibility Wind Dir Wind Speed Gust Speed Precip Events Conditions
12:52 AM 50.0 °F - 39.9 °F 68% 29.35 in 10.0 mi South 6.9 mph - N/A   Clear
1:52 AM 51.1 °F - 39.9 °F 66% 29.33 in 10.0 mi SSE 5.8 mph - N/A   Clear
2:52 AM 55.0 °F - 45.0 °F 69% 29.31 in 10.0 mi South 9.2 mph - 0.00 in   Overcast
3:52 AM 57.0 °F - 45.0 °F 64% 29.24 in 10.0 mi SSE 10.4 mph - N/A   Scattered Clouds
4:52 AM 60.1 °F - 44.1 °F 55% 29.22 in 10.0 mi SSE 23.0 mph - N/A   Mostly Cloudy
5:52 AM 57.0 °F - 46.0 °F 67% 29.20 in 10.0 mi South 15.0 mph - N/A   Mostly Cloudy
6:52 AM 60.1 °F - 46.0 °F 60% 29.23 in 10.0 mi WSW 18.4 mph 29.9 mph N/A   Clear
8:41 AM 57.2 °F - 48.2 °F 72% 29.28 in 10.0 mi West 24.2 mph 32.2 mph N/A   Mostly Cloudy
8:52 AM 57.0 °F - 48.9 °F 74% 29.28 in 10.0 mi WNW 24.2 mph 31.1 mph N/A   Mostly Cloudy
9:13 AM 55.4 °F - 48.2 °F 77% 29.29 in 8.0 mi West 17.3 mph - 0.01 in Rain Light Rain
9:52 AM 55.0 °F - 46.0 °F 72% 29.31 in 10.0 mi West 23.0 mph 34.5 mph 0.01 in   Partly Cloudy
10:52 AM 55.9 °F - 44.1 °F 64% 29.33 in 10.0 mi West 20.7 mph 31.1 mph N/A   Mostly Cloudy
11:52 AM 59.0 °F - 41.0 °F 51% 29.34 in 10.0 mi West 24.2 mph 33.4 mph N/A   Scattered Clouds
12:52 PM 57.9 °F - 37.9 °F 47% 29.35 in 10.0 mi West 21.9 mph 32.2 mph N/A   Clear
1:52 PM 57.9 °F - 37.0 °F 46% 29.34 in 10.0 mi West 25.3 mph 36.8 mph N/A   Scattered Clouds
2:52 PM 55.0 °F - 37.9 °F 53% 29.34 in 10.0 mi West 29.9 mph 38.0 mph N/A   Overcast
3:52 PM 53.1 °F - 39.0 °F 59% 29.34 in 10.0 mi West 28.8 mph 40.3 mph N/A   Overcast
4:44 PM 50.0 °F - 39.2 °F 66% 29.37 in 10.0 mi West 21.9 mph 33.4 mph N/A   Overcast
4:52 PM 50.0 °F - 39.0 °F 66% 29.37 in 10.0 mi West 20.7 mph 34.5 mph N/A   Overcast
5:52 PM 48.9 °F - 37.9 °F 66% 29.39 in 10.0 mi West 21.9 mph 32.2 mph N/A   Overcast
6:12 PM 48.2 °F - 37.4 °F 66% 29.39 in 10.0 mi West 26.5 mph 34.5 mph N/A   Overcast
6:24 PM 48.2 °F - 37.4 °F 66% 29.40 in 10.0 mi WNW 24.2 mph 36.8 mph N/A   Overcast
6:52 PM 48.0 °F - 37.9 °F 68% 29.41 in 10.0 mi WNW 20.7 mph 27.6 mph N/A   Overcast
7:52 PM 48.0 °F - 37.0 °F 66% 29.43 in 10.0 mi WNW 19.6 mph 31.1 mph N/A   Overcast
8:52 PM 46.9 °F - 35.1 °F 63% 29.44 in 10.0 mi WNW 23.0 mph 33.4 mph N/A   Overcast
9:52 PM 46.0 °F 36.5 °F 34.0 °F 63% 29.41 in 10.0 mi WNW 31.1 mph 41.4 mph N/A   Overcast
10:52 PM 45.0 °F 34.6 °F 35.1 °F 68% 29.40 in 10.0 mi WNW 34.5 mph 51.8 mph N/A   Overcast
11:52 PM 45.0 °F 34.6 °F 35.1 °F 68% 29.39 in 10.0 mi WNW 34.5 mph 40.3 mph N/A   Overcast